www.pogodaiklimat.ru

Погода и климат >> Архив погоды >> Китай >> Хэбэй >> Цинлун


ПОГОДА в Цинлуне

  • Прогноз погоды в Цинлуне
  • Монитор погоды в Цинлуне

АРХИВ ПОГОДЫ в Цинлуне

Время (UTC), дата Ветер
(напр.,м/с)
 
Видим.   Явления Облачность Т
(С)
Тd
(С)
f
(%)
Тe
(С)
Тes
(С)
Комфортность P
(гПа)
Po
(гПа)
Тmin
(С)
Tmax
(С)
R
(мм)
R24
(мм)
S
(см)
21 9.09 С 2 30 км н/о +20.4 +11.6 57 +23 +23 комфорт 1016.4 989.8
00 10.09 СВ 2 30 км слаб. дождь 10/10 1500 м
[]
+18.9 +13.1 69 +20 +20 1018.7 991.9 0.0
03 10.09 СВ 3 30 км {дождь} 10/10 1500 м
[]
+20.3 +12.8 62 +23 +23 комфорт 1019.0 992.3
06 10.09 С 4 30 км {дождь} 10/10 1500 м
[]
+22.8 +9.9 44 +25 +25 комфорт 1018.0 991.5 +18.9 0.0
09 10.09 СВ 2 30 км 9/9 1500 м
[]
+22.1 +8.6 42 +23 +23 комфорт 1018.4 991.9
12 10.09 СВ 1 30 км 9/9 1500 м
[]
+19.2 +11.5 61 +21 +21 комфорт 1020.2 993.4
18 10.09 С 1 30 км ?/? +13.4 +11.6 89 +14 +14 1021.5 994.1 +22.8
21 10.09 СЗ 1 30 км н/о +11.6 +10.8 95 +11 +11 1022.7 995.1
00 11.09 В 2 30 км 9/9
[]
+18.9 +11.2 61 +20 +21 1023.3 996.4
03 11.09 В 4 30 км 9/9 1500 м
[]
+23.3 +8.6 39 +25 +25 комфорт 1022.6 996.1
06 11.09 В 2 30 км 9/9 1500 м
[]
+25.0 +9.3 37 +26 +27 жарко 1019.9 993.6 +11.3
09 11.09 Ю 1 30 км 9/9 1500 м
[]
+24.8 +8.7 36 +25 +26 комфорт 1018.8 992.5
12 11.09 С 2 30 км 9/9 1500 м
[]
+19.9 +12.2 61 +22 +22 комфорт 1019.0 989.1
18 11.09 С 1 30 км ?/? +17.2 +13.3 78 +18 +18 1017.4 990.5 +25.3
21 11.09 С 1 30 км н/о +16.2 +15.2 94 +17 +17 1017.7 990.7
00 12.09 С 1 30 км 9/9 1500 м
[]
+17.6 +15.6 88 +19 +19 1017.6 987.7 0.4
03 12.09 штиль 0 30 км 9/9 1500 м
[]
+22.1 +12.4 54 +25 +26 комфорт 1016.7 990.2
06 12.09 ЮЗ 3 30 км 9/9 1500 м
[]
+23.1 +10.9 46 +25 +26 комфорт 1014.5 988.2 +16.0
09 12.09 ЮЗ 4 30 км ясно +23.9 +11.6 46 +25 +26 комфорт 1012.5 986.3
12 12.09 З 1 22 км ясно +19.1 +13.3 69 +21 +21 комфорт 1013.4 986.7
18 12.09 ЮЗ 4 9000 м ?/? +18.9 +15.2 79 +20 +20 1010.7 981.2 +24.5
21 12.09 штиль 0 1700 м дымка н/о +16.8 +16.8 100 +17 +17 1009.9 983.1
00 13.09 В 1 2900 м слаб. дождь 10/10 1500 м
[]
+17.2 +17.2 100 +18 +18 1010.4 983.6 15
03 13.09 Ю 1 9000 м {дождь} 9/9 1500 м
[]
+19.0 +17.3 90 +22 +23 комфорт 1010.3 983.7
06 13.09 ЮЗ 1 30 км {дождь} 9/9 1500 м
[]
+22.8 +17.7 73 +28 +29 душно 1009.6 983.4 +16.7 0.6
09 13.09 штиль 0 30 км 9/9 1500 м
[]
+23.3 +17.7 71 +29 +29 душно 1011.1 984.9
12 13.09 С 1 30 км 9/9 1500 м
[]
+19.3 +18.1 93 +22 +22 комфорт 1013.8 987.1
18 13.09 С 1 30 км ?/? +16.0 +16.0 100 +17 +17 1015.8 988.8 +23.4
21 13.09 С 1 30 км н/о +15.0 +15.0 100 +15 +15 1016.5 989.4
00 14.09 штиль 0 30 км 5/5 1500 м
[]
+17.8 +15.6 87 +18 +20 1017.8 987.9
03 14.09 Ю 2 30 км ясно +24.5 +10.8 42 +26 +38 жарко 1017.0 990.7
06 14.09 В 1 30 км 5/5 1500 м
[]
+26.5 +10.6 37 +27 +33 жарко 1014.8 988.8 +14.5
09 14.09 ЮВ 1 30 км 9/9 1500 м
[]
+25.1 +10.6 40 +26 +26 жарко 1014.5 988.3
12 14.09 З 3 30 км 9/9 1500 м
[]
+21.0 +13.7 63 +24 +24 комфорт 1016.3 986.5
18 14.09 С 1 10 км 8/8 1500 м
[]
+14.7 +14.7 100 +15 +15 1015.5 988.4 +27.6
21 14.09 С 1 н/о дымка 9/9 1500 м
[]
+13.4 +13.4 100 +13 +13 1015.2 988.0
00 15.09 СВ 1 10 км 5/5 1500 м
[]
+17.0 +15.7 92 +18 +20 1014.5 984.7
03 15.09 Ю 4 13 км 8/8 1500 м
[]
+24.4 +16.9 63 +28 +30 душно 1012.5 986.3
06 15.09 ЮЗ 6 26 км 6/6
[]
+26.5 +13.9 46 +29 +30 жарко 1010.7 981.2 +13.2
09 15.09 ЮЗ 3 26 км 9/9 1500 м
[]
+25.5 +14.3 50 +28 +28 жарко 1010.7 984.7
12 15.09 З 1 15 км 9/9 1500 м
[]
+21.3 +16.7 75 +25 +25 комфорт 1012.9 986.4
18 15.09 СВ 3 30 км ясно +20.0 +6.0 40 +21 +21 комфорт 1015.3 988.7 +26.7
21 15.09 В 3 30 км ясно +17.4 +4.7 43 +17 +17 1017.6 990.7
00 16.09 СВ 7 30 км ясно +17.3 +4.9 44 +16 +17 1019.7 992.7
03 16.09 В 6 30 км ясно +20.4 +2.7 31 +21 +25 комфорт 1019.5 992.8
06 16.09 Ю 2 30 км ясно +23.2 +4.7 30 +23 +33 комфорт 1017.2 990.8 +16.5
09 16.09 Ю 1 30 км ясно +24.1 +6.4 32 +24 +25 комфорт 1016.4 990.1
12 16.09 штиль 0 30 км ясно +15.8 +11.0 73 +16 +16 1018.0 987.8
18 16.09 С 1 30 км ?/? +11.3 +10.2 93 +11 +11 1018.4 990.9 +24.6

 

Местоположение метеостанции Цинлун (Хэбэй, Китай): широта 40.40 долгота 118.95 высота над уровнем моря 228 м.

В архиве по умолчанию представлена погода в Цинлуне за последнюю неделю. Архивные данные за месяц целиком и за предыдущие месяцы, начиная с января 2011 года, Вы можете получить, выбрав интересующий диапазон дат из раскрывающегося списка и нажав кнопку "Ввод!".


*Определитесь, кто Вы:
робот инопланетянин человек

Внимание! Время в таблицах - всемирное. Для получения местного времени необходимо прибавить поправку, которая равна 8 ч.

Смотрите также архив погоды в соседних городах и на ближайших метеорологических станциях:

Погода в Таншане (Хэбэй, Китай) (106 км)
Погода в Чэндэ (Хэбэй, Китай) (106 км)
Погода в Лаотине (Хэбэй, Китай) (108 км)
Погода в Чаояне (Ляонин, Китай) (180 км)
Погода в Вэйчане (Хэбэй, Китай) (198 км)
Погода в Цзиньчжоу (Ляонин, Китай) (199 км)
Погода в Чифэне (Внутренняя Монголия, Китай) (208 км)
Погода в Тяньцзине (город Тяньцзинь, Китай) (211 км)
Погода в Фэннине (Хэбэй, Китай) (216 км)
Погода в Пекине (город Пекин, Китай) (233 км)

Пояснения к столбцам:

Ветер - указаны скорость ветра в м/с - средняя за 10 мин, порывы в срок и между сроками (в фигурных скобках) и направление, откуда дует ветер: С - северный, СВ - северо-восточный, В - восточный, ЮВ - юго-восточный, Ю - южный, ЮЗ - юго-западный, З - западный, СЗ - северо-западный.
Видимость - горизонтальная дальность видимости в метрах или километрах. При видимости от 1 до 10 км при отсутствии осадков обычно наблюдается дымка, при ухудшении видимости до 1 км и менее - туман. В сухую погоду видимость может ухудшаться дымом, пылью или мглою.
Явления - указаны атмосферные явления, наблюдавшиеся в срок или в последний час перед сроком; фигурными скобками обозначены явления, наблюдавшиеся между сроками (за 1-3 часа до срока); квадратными скобками обозначены град или гололедные отложения с указанием их диаметра в мм.
Облачность - указаны через наклонную черту общая и нижняя облачность в баллах и высота нижней границы облаков в метрах; квадратными скобками обозначены формы облаков: Ci - перистые, Cs - перисто-слоистые, Cc - перисто-кучевые, Ac - высококучевые, As - высокослоистые, Sc - слоисто-кучевые, Ns - слоисто-дождевые, Cu - кучевые, Cb - кучево-дождевые. Подробнее классификацию облаков см. в Атласе облаков (PDF).
T - Температура воздуха - температура, измеренная на высоте 2 м над землей.
Td - Температура точки росы - температура, при понижении до которой содержащийся в воздухе водяной пар достигнет насыщения.
f - Относительная влажность воздуха - влажноcть воздуха, измеренная на высоте 2 м над землей.
Te - Эффективная температура - температура, которую ощущает одетый по сезону человек в тени. Характеристика душности погоды. При расчете учитывается влияние влажности воздуха и скорости ветра на теплоощущения человека.
Tes - Эффективная температура на солнце - температура, которую ощущает человек, с поправкой на солнечный нагрев. Характеристика знойности погоды. Зависит от высоты солнца над горизонтом, облачности и скорости ветра. Ночью, в пасмурную погоду, а также при ветре 12 м/с и более поправка равна нулю.
P - Атмосферное давление - приведенное к уровню моря атмосферное давление.
Po - Атмосферное давление - измеренное на уровне метеостанции атмосферное давление.
Tmin - Минимальная температура - минимум температуры воздуха на высоте 2 м над землей.
Tmax - Максимальная температура - максимум температуры воздуха на высоте 2 м над землей.
R - Количество осадков - Количество выпавших осадков за период времени, мм. При наведении курсора мыши на число - период времени, за который выпало указанное количество осадков.
R24 - Количество осадков - Количество выпавших осадков за 24 часа, мм.
S - Снежный покров - Высота снежного покрова, см. При наведении курсора мыши на число - состояние снежного покрова и степень покрытия местности в баллах.